| time (UTC) | temp C | wind direction | speed KPH | gust KPH | rain 1hr cm | rain 24hr cm | rain mn cm | humidity % | barometer mb |
| 20260502163041 | 12 | 292 | 1.6 | 9.7 | 0.00 | 0.00 | 0.00 | 57 | 1019.5 |
| 20260502161539 | 12 | 178 | 0.0 | 6.4 | 0.00 | 0.00 | 0.00 | 59 | 1019.7 |
| 20260502151551 | 11 | 134 | 0.0 | 4.8 | 0.00 | 0.00 | 0.00 | 61 | 1019.6 |
| 20260502123019 | 6 | 31 | 0.0 | 3.2 | 0.00 | 0.00 | 0.00 | 77 | 1019.1 |
| 20260502121522 | 6 | 44 | 0.0 | 4.8 | 0.00 | 0.00 | 0.00 | 76 | 1019.1 |
| 20260502114509 | 5 | 40 | 0.0 | 8.0 | 0.00 | 0.00 | 0.00 | 78 | 1018.8 |
| 20260502113016 | 5 | 63 | 0.0 | 6.4 | 0.00 | 0.00 | 0.00 | 78 | 1018.8 |
| 20260502111506 | 5 | 55 | 1.6 | 6.4 | 0.00 | 0.00 | 0.00 | 77 | 1018.5 |
| 20260502110007 | 5 | 32 | 0.0 | 4.8 | 0.00 | 0.00 | 0.00 | 77 | 1018.4 |
| 20260502104506 | 6 | 31 | 0.0 | 1.6 | 0.00 | 0.00 | 0.00 | 77 | 1018.6 |
| 20260502103005 | 6 | 35 | 0.0 | 3.2 | 0.00 | 0.00 | 0.00 | 77 | 1018.3 |
| 20260502101504 | 6 | 35 | 0.0 | 4.8 | 0.00 | 0.00 | 0.00 | 77 | 1018.3 |
| 20260502091503 | 6 | 34 | 0.0 | 3.2 | 0.00 | 0.00 | 0.00 | 77 | 1018.4 |
| 20260502080107 | 6 | 32 | 0.0 | 0.0 | 0.00 | 0.00 | 0.00 | 77 | 1018.3 |
| 20260502070056 | 6 | 32 | 0.0 | 0.0 | 0.00 | 0.00 | 0.00 | 78 | 1018.2 |
| 20260502064600 | 6 | 32 | 0.0 | 0.0 | 0.00 | 0.00 | 0.00 | 78 | 1018.3 |
| 20260502063103 | 6 | 324 | 0.0 | 1.6 | 0.00 | 0.00 | 0.00 | 78 | 1018.5 |
| 20260502061553 | 6 | 324 | 0.0 | 0.0 | 0.00 | 0.00 | 0.00 | 78 | 1018.5 |
| 20260502060108 | 6 | 324 | 0.0 | 0.0 | 0.00 | 0.00 | 0.00 | 78 | 1018.5 |
| 20260502054551 | 6 | 324 | 0.0 | 0.0 | 0.00 | 0.00 | 0.00 | 77 | 1018.8 |
| 20260502053059 | 6 | 324 | 0.0 | 0.0 | 0.00 | 0.00 | 0.00 | 76 | 1019.0 |
| 20260502051557 | 6 | 324 | 0.0 | 0.0 | 0.00 | 0.00 | 0.00 | 76 | 1018.9 |
| 20260502050044 | 6 | 324 | 0.0 | 0.0 | 0.00 | 0.00 | 0.00 | 74 | 1018.9 |
| 20260502044542 | 7 | 324 | 0.0 | 0.0 | 0.00 | 0.00 | 0.00 | 74 | 1018.9 |
| 20260502043040 | 7 | 324 | 0.0 | 0.0 | 0.00 | 0.00 | 0.00 | 73 | 1018.9 |
| 20260502041541 | 7 | 324 | 0.0 | 0.0 | 0.00 | 0.00 | 0.00 | 72 | 1018.9 |
| 20260502040037 | 7 | 324 | 0.0 | 0.0 | 0.00 | 0.00 | 0.00 | 71 | 1018.9 |
| 20260502034537 | 8 | 324 | 0.0 | 0.0 | 0.00 | 0.00 | 0.00 | 70 | 1018.9 |
| 20260502033039 | 8 | 324 | 0.0 | 0.0 | 0.00 | 0.00 | 0.00 | 69 | 1018.9 |
| 20260502031541 | 8 | 324 | 0.0 | 0.0 | 0.00 | 0.00 | 0.00 | 67 | 1018.9 |
| 20260502030035 | 8 | 324 | 0.0 | 0.0 | 0.00 | 0.00 | 0.00 | 67 | 1018.9 |
| 20260502024537 | 9 | 324 | 0.0 | 0.0 | 0.00 | 0.00 | 0.00 | 66 | 1019.0 |
| 20260502023035 | 10 | 324 | 0.0 | 0.0 | 0.00 | 0.00 | 0.00 | 63 | 1018.9 |
| 20260502021534 | 10 | 324 | 0.0 | 0.0 | 0.00 | 0.00 | 0.00 | 61 | 1018.7 |
| 20260502020029 | 11 | 324 | 0.0 | 0.0 | 0.00 | 0.00 | 0.00 | 60 | 1018.4 |
| 20260502014532 | 11 | 324 | 0.0 | 0.0 | 0.00 | 0.00 | 0.00 | 59 | 1018.3 |
| 20260502013027 | 11 | 324 | 0.0 | 0.0 | 0.00 | 0.00 | 0.00 | 58 | 1017.9 |
| 20260502011543 | 12 | 324 | 0.0 | 0.0 | 0.00 | 0.00 | 0.00 | 57 | 1017.7 |
| 20260502010026 | 12 | 324 | 0.0 | 0.0 | 0.00 | 0.00 | 0.00 | 56 | 1017.3 |
| 20260502004540 | 12 | 324 | 0.0 | 3.2 | 0.00 | 0.00 | 0.00 | 54 | 1017.2 |
| 20260502003028 | 12 | 306 | 0.0 | 6.4 | 0.00 | 0.00 | 0.00 | 54 | 1017.2 |
| 20260502001523 | 12 | 355 | 0.0 | 6.4 | 0.00 | 0.00 | 0.00 | 53 | 1016.9 |
| 20260502000024 | 13 | 343 | 0.0 | 8.0 | 0.00 | 0.00 | 0.00 | 53 | 1016.3 |
| 20260501234524 | 13 | 344 | 0.0 | 6.4 | 0.00 | 0.00 | 0.00 | 53 | 1016.0 |
| 20260501233023 | 13 | 336 | 1.6 | 9.7 | 0.00 | 0.00 | 0.00 | 53 | 1015.7 |
| 20260501231534 | 13 | 349 | 1.6 | 9.7 | 0.00 | 0.00 | 0.00 | 51 | 1016.0 |
| 20260501230019 | 13 | 343 | 3.2 | 16.1 | 0.00 | 0.00 | 0.00 | 50 | 1016.1 |
| 20260501224520 | 13 | 330 | 3.2 | 8.0 | 0.00 | 0.00 | 0.00 | 51 | 1015.9 |
| 20260501223018 | 14 | 314 | 0.0 | 12.9 | 0.00 | 0.00 | 0.00 | 49 | 1015.8 |
| 20260501221517 | 15 | 299 | 1.6 | 8.0 | 0.00 | 0.00 | 0.00 | 47 | 1015.8 |
| 20260501220023 | 15 | 309 | 0.0 | 9.7 | 0.00 | 0.00 | 0.00 | 46 | 1015.6 |
| 20260501214518 | 15 | 272 | 3.2 | 16.1 | 0.00 | 0.00 | 0.00 | 43 | 1015.8 |
| 20260501213025 | 15 | 302 | 4.8 | 9.7 | 0.00 | 0.00 | 0.00 | 46 | 1015.7 |
| 20260501211516 | 15 | 219 | 0.0 | 9.7 | 0.00 | 0.00 | 0.00 | 49 | 1015.9 |
| 20260501210020 | 15 | 306 | 4.8 | 14.5 | 0.00 | 0.00 | 0.00 | 47 | 1015.7 |
| 20260501204518 | 15 | 9 | 3.2 | 14.5 | 0.00 | 0.00 | 0.00 | 49 | 1015.9 |
| 20260501203017 | 14 | 307 | 3.2 | 9.7 | 0.00 | 0.00 | 0.00 | 49 | 1016.0 |
| 20260501201513 | 15 | 316 | 1.6 | 11.3 | 0.00 | 0.00 | 0.00 | 50 | 1016.1 |
| 20260501200014 | 14 | 315 | 3.2 | 9.7 | 0.00 | 0.00 | 0.00 | 50 | 1016.0 |
| 20260501194517 | 15 | 166 | 0.0 | 11.3 | 0.00 | 0.00 | 0.00 | 51 | 1016.1 |
| 20260501193026 | 16 | 168 | 3.2 | 14.5 | 0.00 | 0.00 | 0.00 | 47 | 1016.0 |
| 20260501191516 | 15 | 321 | 3.2 | 14.5 | 0.00 | 0.00 | 0.00 | 46 | 1016.0 |
| 20260501190019 | 16 | 307 | 3.2 | 17.7 | 0.00 | 0.00 | 0.00 | 45 | 1015.8 |
| 20260501184504 | 16 | 311 | 1.6 | 8.0 | 0.00 | 0.00 | 0.00 | 49 | 1015.7 |
| 20260501183001 | 15 | 171 | 4.8 | 16.1 | 0.00 | 0.00 | 0.00 | 50 | 1016.0 |
| 20260501181558 | 15 | 247 | 3.2 | 16.1 | 0.00 | 0.00 | 0.00 | 50 | 1016.4 |
| 20260501180059 | 14 | 313 | 3.2 | 16.1 | 0.00 | 0.00 | 0.00 | 52 | 1016.5 |
| 20260501174559 | 14 | 301 | 4.8 | 17.7 | 0.00 | 0.00 | 0.00 | 51 | 1016.4 |
| 20260501173101 | 14 | 303 | 4.8 | 14.5 | 0.00 | 0.00 | 0.00 | 52 | 1016.2 |
| 20260501171556 | 15 | 173 | 6.4 | 14.5 | 0.00 | 0.00 | 0.00 | 49 | 1016.0 |